Terminal Aerodrome Forecast
Issued by NWS Topeka, KS

Home | Current Version | Previous Version | Graphics & Text | Print | Product List | Glossary On
Versions: 1 2 3 4 5 6 7 8 9 10 11 12 13 14 15
000
FTUS43 KTOP 230235 AAA
TAFTOP
TAF AMD
KTOP 230235Z 2303/2324 06005KT P6SM VCTS BKN050CB
      TEMPO 2303/2304 VRB20G40KT 2SM TSRA BKN050CB
     FM230800 07003KT P6SM SCT020 BKN090=

USA.gov is the U.S. government's official web portal to all federal, state and local government web resources and services.